Starlink 5623

operational
NORAD ID: 55405 Int'l Des: 2023-014 Owner: SPXS Country: US Constellation: starlink
LEOCIRCULAR

Starlink 5623について

説明を読み込み中...

リアルタイム位置

3D地球を読み込み中...

次回通過

高度履歴

Altitude vs Time

uPlot chart will show altitude changes over time

軌道要素

1 55405U 23014Q 25347.56381816 .00000683 00000-0 65071-4 0 9998
2 55405 70.0010 281.6460 0002914 267.0750 93.0076 14.98326700159155
Epoch: Dec 13, 2025 • Age: 23 hours

現在のステータス

高度 578.7 km
速度 7.57 km/s
衛星直下点 40.20°N, 31.33°E
打ち上げ日 Jan 31, 2023
運用期間 2.8 years
タイプ internet

技術仕様

分類 Payload
質量 305.00 kg
乾燥質量 290.00 kg
総質量 305.00 kg
長さ 0.20 m
直径 2.80 m
スパン 9.00 m
形状 Box + pan
製造者 SPXS
バスタイプ Starlink
フェーズステータス In Orbit
所有者/国 SPXS/US

大規模コンステレーション

Loading constellations...